Theta_e
321 312 312 305 294 292 287 290 294 298 302 306 307 306 306 310 307 301 324 332 332 333 339 343 346 349 349 348 347 344 342 340 339 338 337 336 336 336 336 334 336 337 335 335 336 335 335 335 335
314 313 308 300 290 284 284 291 293 296 300 301 305 306 306 307 319 321 322 331 333 335 339 340 343 347 348 348 347 345 342 339 337 337 335 334 334 334 333 333 335 335 334 334 335 335 334 335 337
307 312 303 297 288 285 286 291 297 301 302 302 306 311 311 312 319 321 326 332 333 336 339 340 343 347 348 347 346 345 343 341 338 336 334 333 333 334 334 334 334 334 334 334 334 334 334 337 336
308 307 302 293 290 293 290 294 298 300 302 299 306 304 314 323 323 326 332 333 332 336 338 339 344 347 347 346 345 345 344 342 338 338 335 334 335 335 334 334 334 335 334 333 333 334 336 336 337
307 301 293 289 290 294 296 299 299 298 298 297 299 298 308 323 327 331 330 333 331 334 338 338 342 345 346 346 345 344 343 341 340 339 335 335 335 336 335 334 334 334 333 333 333 332 336 336 336
301 298 289 286 288 295 298 297 297 298 299 301 299 298 308 321 324 325 330 326 331 333 336 338 336 340 343 344 344 343 342 341 340 339 337 336 337 336 335 335 334 334 334 333 332 335 335 335 337
298 295 288 286 289 293 296 296 297 296 297 298 298 298 308 320 323 325 324 325 328 331 333 336 338 337 335 338 339 340 341 340 339 338 337 336 336 336 335 335 335 336 335 333 335 336 337 337 338
299 296 287 288 288 291 294 293 298 294 296 298 301 299 303 313 309 310 325 323 326 329 330 332 336 336 338 338 333 334 337 337 337 336 333 330 331 331 331 330 334 336 336 335 336 337 337 336 336
297 290 285 287 288 289 291 290 293 293 293 293 298 298 301 297 298 300 307 316 323 327 328 330 336 338 339 339 335 331 332 332 332 331 328 326 327 328 327 326 330 334 335 336 337 337 336 334 332
293 286 288 291 290 288 289 287 288 289 289 289 293 297 295 294 294 294 300 301 306 316 325 329 332 336 335 339 336 336 336 334 332 331 328 325 324 325 325 322 325 330 332 335 336 335 332 328 327
291 288 290 289 289 288 288 287 288 285 285 287 288 289 291 291 293 295 295 296 301 312 316 322 328 330 334 337 336 334 334 333 332 329 327 324 322 321 323 322 321 325 324 331 332 330 326 325 324
287 289 289 291 291 289 287 288 286 286 287 289 288 288 288 291 291 292 293 295 294 295 297 299 316 327 333 334 334 333 333 333 331 330 327 323 320 320 322 322 321 324 327 327 329 326 325 324 323
285 286 289 289 289 288 288 286 286 286 290 290 290 290 288 289 289 291 293 294 293 293 294 295 298 312 327 331 331 333 333 332 331 330 327 325 322 320 320 322 322 324 326 327 327 325 324 323 321
287 288 287 287 288 288 285 284 284 286 286 288 289 289 288 288 289 289 289 290 291 292 293 294 295 298 314 323 326 329 332 332 331 329 327 325 324 322 320 320 320 323 324 328 326 323 322 321 319
288 285 284 285 285 284 284 282 281 286 286 286 287 287 288 289 289 289 289 290 290 292 292 293 294 295 298 312 322 327 329 331 331 330 328 325 324 323 321 320 320 320 324 325 324 322 322 320 318
281 280 277 281 283 284 282 278 283 284 285 286 287 288 287 288 288 289 290 290 291 291 291 293 295 295 297 302 314 322 326 327 329 329 329 325 324 324 322 321 320 321 323 325 322 320 320 317 315
277 274 275 278 283 283 281 278 284 285 285 285 286 286 286 286 288 289 290 290 291 290 290 292 293 293 295 298 304 315 319 321 325 328 327 327 325 324 323 322 322 322 322 324 322 319 319 314 311
275 275 276 275 279 282 280 280 284 286 284 284 284 284 284 285 287 290 291 291 290 289 289 290 293 294 296 296 298 302 307 315 320 322 326 327 326 325 323 322 322 321 321 322 322 317 317 313 306
278 278 276 277 282 280 279 279 282 285 282 282 282 283 284 285 288 289 289 291 291 293 293 294 296 297 297 297 298 300 301 306 312 317 321 322 324 324 324 323 322 321 320 321 320 316 313 307 300
280 278 274 279 281 280 278 279 282 282 281 282 283 283 284 285 287 289 288 291 294 295 296 294 294 295 296 296 297 301 302 302 304 309 316 319 320 321 321 319 322 321 320 321 317 313 306 301 302
278 277 277 276 280 278 277 276 277 280 282 283 284 285 286 285 286 287 288 292 292 291 291 293 294 294 294 296 297 297 297 298 300 301 305 311 317 315 312 312 317 321 321 320 316 311 308 298 302
277 280 280 279 274 267 277 268 275 278 280 283 284 283 283 284 286 287 289 291 290 290 289 291 293 293 295 295 295 294 292 291 293 295 298 301 308 316 313 312 312 318 321 319 316 311 311 303 301
278 281 280 279 271 267 267 265 273 277 278 280 282 283 283 284 285 286 287 289 290 290 289 291 292 293 294 295 294 293 291 293 294 296 297 299 301 306 314 310 310 310 311 320 316 310 310 306 305
282 279 277 275 269 262 266 268 272 274 277 277 280 282 283 283 285 285 287 288 289 290 291 291 291 292 294 294 294 293 293 292 293 294 295 297 299 301 308 314 311 311 310 312 316 311 310 307 307
280 274 266 266 264 268 271 267 274 277 278 279 280 281 282 283 283 284 285 287 288 288 288 289 290 290 292 293 293 293 293 293 293 293 294 295 296 299 302 310 314 312 311 311 316 311 309 307 307
276 274 267 263 263 265 272 267 274 279 280 280 281 281 282 282 283 284 285 286 287 288 289 289 289 289 291 292 292 293 293 293 294 294 295 295 296 297 300 306 311 314 312 313 314 312 309 307 307
277 273 275 263 258 262 266 272 276 280 279 280 280 280 280 281 285 284 285 286 286 287 288 289 289 290 291 291 291 292 293 293 293 293 294 295 296 297 299 303 307 309 309 312 312 310 307 307 306
278 280 271 267 262 260 266 266 273 277 278 278 278 279 280 283 283 283 284 286 287 288 289 289 290 290 290 291 291 292 293 293 293 293 293 294 295 295 297 299 305 308 308 309 311 309 307 306 304
276 275 274 272 269 263 262 271 275 277 278 278 278 280 280 282 282 284 286 286 287 288 289 289 290 290 289 290 289 290 290 291 292 292 293 293 294 295 295 298 303 307 308 309 308 308 304 304 302
278 276 275 267 266 267 268 270 279 279 279 279 280 282 281 282 283 285 285 286 286 289 289 289 288 288 289 289 289 288 289 289 290 290 291 293 294 295 296 296 299 305 307 307 305 303 301 301 298
Wind_Speed
10 7 1 5 5 5 3 5 2 4 1 2 3 2 2 3 2 3 5 7 3 10 9 9 13 16 17 17 17 17 16 14 13 12 12 12 10 10 10 10 11 11 13 13 13 14 15 16 16
6 5 5 3 5 2 6 4 2 2 4 8 4 2 2 0 1 2 1 5 5 9 9 8 9 14 16 15 16 16 15 16 15 13 12 12 12 11 10 11 11 11 13 13 13 14 15 16 17
3 3 4 4 3 5 5 2 3 7 7 1 3 4 4 1 0 2 3 8 7 8 8 8 11 14 12 13 15 16 15 15 15 14 13 13 12 12 12 12 11 10 12 13 13 14 16 15 17
3 5 5 4 5 6 4 2 3 8 6 2 3 1 2 4 6 6 2 8 8 7 7 8 13 15 15 15 15 15 15 15 14 12 13 14 13 12 12 13 12 12 12 13 13 15 15 15 13
4 3 2 1 5 5 3 3 5 4 4 4 5 4 2 5 7 7 4 5 7 5 6 8 14 14 14 15 16 16 15 14 14 13 13 13 13 14 12 13 13 11 13 14 14 15 14 12 12
4 4 2 4 5 5 5 3 4 2 4 6 6 6 2 2 11 8 4 2 1 5 6 7 11 12 13 17 17 16 16 16 15 14 13 13 14 13 14 13 13 13 14 15 15 14 14 12 11
6 5 4 3 4 4 2 8 0 2 4 1 2 2 1 8 7 6 5 2 2 0 1 3 7 10 12 13 14 15 17 16 15 14 13 13 14 14 14 13 14 15 13 14 15 14 14 13 12
5 5 2 4 2 5 4 7 3 3 4 7 1 4 2 3 9 8 5 3 3 1 1 2 3 4 6 8 12 13 14 14 14 13 12 11 11 12 12 11 11 15 15 14 15 14 15 15 14
3 4 3 4 4 3 4 6 4 2 4 4 2 4 3 5 6 5 6 4 3 1 4 5 5 7 8 8 11 13 15 15 15 14 12 10 7 8 8 9 12 14 14 15 15 16 17 15 15
4 4 7 2 1 2 4 0 3 5 4 4 5 3 8 9 8 7 5 6 5 3 4 4 5 9 11 9 9 11 11 10 11 10 9 7 7 6 7 6 10 9 13 13 12 17 17 13 8
2 5 2 2 1 3 3 4 2 2 6 7 3 6 7 5 7 8 6 4 5 5 2 3 5 5 9 9 6 5 6 7 8 11 10 8 6 6 5 4 5 4 8 6 10 11 8 9 9
2 2 1 2 2 5 6 7 6 8 10 4 4 4 4 6 7 7 9 8 7 7 8 7 6 6 8 7 7 6 6 7 8 11 14 9 6 6 8 5 4 5 4 6 8 6 9 11 11
2 1 3 3 7 7 5 8 7 10 12 8 6 5 6 7 8 8 9 9 9 8 8 9 6 6 7 9 6 7 7 7 9 10 13 11 11 10 8 9 6 5 6 7 8 7 8 10 10
1 3 6 3 3 2 5 6 2 6 0 5 4 8 9 8 7 7 7 8 9 8 9 8 8 8 6 6 7 8 7 9 9 9 12 16 13 12 11 10 9 7 7 7 9 9 8 9 9
2 6 6 0 2 1 3 10 10 7 2 6 8 10 10 11 9 9 8 9 8 9 8 9 8 8 7 7 7 7 7 8 9 10 15 17 17 15 16 13 12 10 8 9 9 9 8 9 9
3 3 4 1 5 2 4 13 6 3 3 9 12 12 9 13 9 10 9 8 8 8 9 9 5 7 8 7 5 4 5 6 8 9 10 17 19 19 15 13 13 12 10 10 9 10 9 8 9
6 2 2 8 3 4 1 11 12 4 5 9 13 12 9 10 10 10 10 8 9 7 8 8 5 7 7 7 5 4 6 5 6 8 8 11 17 17 15 14 14 15 12 11 11 10 12 11 8
2 3 4 6 3 5 10 22 24 21 7 11 12 9 9 8 12 10 10 8 8 6 5 6 4 4 4 4 5 4 3 4 5 6 8 13 9 14 17 15 16 14 12 13 11 14 11 11 12
4 1 4 5 3 6 9 14 25 22 8 11 10 9 7 9 9 8 7 8 5 1 4 5 4 2 1 1 2 3 4 3 3 4 8 9 9 11 13 15 18 16 17 14 14 13 16 9 11
1 1 5 6 2 3 10 22 27 12 6 7 7 7 8 6 8 9 6 6 5 3 4 3 4 4 3 2 3 4 3 4 4 6 6 6 7 8 7 5 12 19 16 18 13 16 11 5 14
3 4 2 4 7 2 11 9 7 4 3 3 5 6 7 8 9 10 8 8 5 5 5 6 8 7 5 6 3 3 3 3 3 4 5 8 9 10 10 9 9 12 17 17 20 19 21 11 12
4 3 1 5 5 3 6 11 9 5 10 7 9 8 9 8 7 8 8 8 8 8 4 6 9 9 8 7 5 7 6 7 5 5 5 9 10 11 12 11 10 11 14 21 20 19 19 16 17
3 1 2 1 3 6 6 3 13 5 7 10 8 10 8 8 8 9 10 8 10 8 7 8 10 10 10 11 9 8 8 7 5 6 8 10 12 13 13 14 14 14 10 14 21 23 21 16 18
4 1 4 3 4 2 5 5 8 5 7 4 4 6 9 9 8 8 9 8 9 9 11 13 14 15 14 13 15 13 17 12 9 8 9 10 9 11 14 15 13 14 16 16 15 23 23 19 18
2 5 6 8 6 6 3 2 16 9 7 7 9 11 9 8 8 8 10 10 10 12 12 12 14 17 15 15 16 16 17 16 15 13 11 13 11 11 14 14 14 12 12 16 15 19 22 20 19
2 5 7 6 3 7 2 10 11 6 8 8 9 9 9 9 9 11 12 12 13 16 17 17 16 18 15 15 18 17 16 10 12 13 12 11 12 12 12 12 14 14 12 10 10 17 17 18 16
2 2 3 7 1 3 4 9 14 8 9 10 11 7 10 9 16 16 16 14 14 15 17 17 16 17 16 18 14 13 14 17 16 18 16 12 14 12 11 13 14 13 11 13 14 11 16 20 17
3 6 4 4 2 7 8 9 8 6 6 4 6 8 11 16 16 13 12 14 14 16 17 15 16 19 18 19 16 16 16 16 16 18 19 16 16 14 13 14 15 14 14 15 16 14 14 19 15
2 2 3 4 5 6 5 11 10 10 7 7 6 9 11 16 15 15 17 16 16 15 12 14 15 18 18 17 16 17 16 16 16 16 16 15 16 15 15 13 15 15 14 16 17 15 18 14 17
3 6 6 6 6 4 2 17 4 9 6 6 8 11 13 14 14 17 17 18 17 18 17 16 16 17 16 16 17 20 18 17 17 17 17 16 14 15 13 15 12 14 14 15 16 15 15 18 14
Wind_Direction
330 328 35 40 52 62 262 260 245 314 261 2 300 145 164 129 180 222 314 195 145 150 166 169 170 168 166 163 160 158 159 160 164 165 162 166 160 161 156 162 159 157 151 151 146 140 137 137 134
331 341 40 80 96 93 261 261 219 293 291 309 251 132 39 327 210 291 319 196 157 153 161 164 174 173 170 169 163 162 164 164 166 165 173 173 173 171 171 163 169 158 155 150 148 140 144 144 133
316 26 70 91 116 189 220 195 339 300 301 8 315 30 141 231 259 218 243 152 141 157 161 165 171 173 177 173 169 168 167 168 167 171 175 180 183 175 172 159 169 169 160 154 151 143 151 145 139
27 16 37 97 222 249 217 27 332 330 327 36 4 278 36 10 0 333 34 134 138 154 161 166 172 174 177 172 175 175 174 172 173 180 178 180 184 177 173 168 178 172 164 159 155 152 157 150 152
38 58 48 277 248 266 252 284 302 323 300 321 346 298 58 23 358 15 71 128 148 160 164 168 176 177 179 177 179 181 182 178 178 177 185 187 181 181 185 174 175 179 171 165 162 162 160 166 163
51 92 64 251 243 266 287 7 281 321 308 321 31 336 85 310 21 344 3 3 163 166 168 176 184 181 180 179 182 184 185 182 184 185 187 191 182 185 177 186 177 183 173 172 170 164 167 180 175
118 96 221 243 245 287 244 333 276 315 278 286 265 246 116 19 348 352 2 136 162 357 206 207 198 193 185 181 184 184 185 187 186 191 192 186 192 176 181 190 181 192 178 178 171 172 174 173 149
106 95 213 245 214 266 345 336 346 22 290 310 255 239 231 347 351 345 25 62 161 186 267 261 251 238 213 198 187 186 187 187 186 189 192 193 193 186 188 194 191 185 177 179 181 181 172 166 161
123 64 237 257 183 262 8 9 321 286 265 313 265 180 142 322 351 3 348 3 32 243 209 201 217 224 218 217 202 194 191 188 188 190 189 193 183 195 196 197 188 190 184 186 187 185 170 152 130
87 138 223 240 300 281 305 252 317 334 325 278 299 337 349 345 347 353 342 324 324 322 290 246 226 222 223 222 223 211 197 199 198 186 187 190 182 186 190 195 205 210 193 191 178 167 138 134 131
147 200 215 270 280 356 290 282 234 263 289 238 282 294 315 322 348 348 327 292 288 295 281 264 243 244 248 238 231 213 207 196 196 188 184 181 185 177 176 181 203 208 209 197 165 146 140 150 136
207 183 178 316 24 338 300 303 280 195 233 208 251 272 297 323 319 324 310 299 302 291 299 298 270 241 231 239 244 228 223 213 192 199 192 183 183 183 179 188 186 190 192 189 169 162 156 148 145
206 338 308 289 293 264 292 259 251 258 262 279 276 294 276 270 275 273 266 278 282 278 276 274 283 263 248 242 252 217 220 218 215 203 195 193 190 189 176 191 196 193 197 181 171 165 160 150 149
293 282 275 276 286 312 299 267 26 253 291 306 281 277 287 278 251 260 263 258 266 272 270 276 274 266 253 236 230 245 226 219 226 206 204 198 199 190 184 189 202 202 197 184 172 168 166 152 149
323 328 325 96 345 330 286 293 227 254 313 299 299 299 300 298 301 264 247 254 245 261 262 264 272 261 263 241 237 225 233 231 226 219 215 203 196 200 191 192 193 201 195 181 177 169 167 147 148
42 58 358 231 359 37 68 275 265 276 8 307 302 291 287 286 281 284 274 242 256 250 256 272 265 267 268 260 237 235 232 236 234 229 251 206 208 193 196 194 200 198 188 183 181 170 163 155 155
4 246 304 318 47 359 141 280 259 232 279 280 276 282 283 287 294 282 281 275 275 245 266 277 300 282 284 280 269 234 233 234 241 242 231 245 210 207 201 198 195 197 195 185 181 181 170 155 143
254 321 300 251 313 359 276 263 277 282 237 252 264 274 276 284 274 279 292 294 273 262 231 250 284 319 322 310 305 299 274 236 228 238 239 228 228 239 204 202 198 191 200 186 181 173 174 164 143
115 159 256 254 289 332 269 274 285 286 239 248 254 255 267 265 269 275 275 287 294 147 153 187 186 215 143 86 344 328 302 306 283 256 238 242 235 223 237 227 199 193 190 198 175 167 162 146 140
97 316 276 294 306 316 295 289 278 296 249 214 217 252 261 269 286 288 281 278 257 249 260 252 246 249 236 187 199 190 204 266 264 281 276 250 231 223 207 243 247 189 191 182 170 167 154 133 171
232 194 246 239 321 233 304 293 316 281 300 313 265 262 276 261 277 291 294 264 229 256 280 294 294 284 229 227 264 252 219 244 243 272 268 257 237 220 217 215 209 237 194 193 167 171 173 156 194
291 187 291 300 33 269 30 283 300 354 314 300 280 268 256 256 278 268 268 279 267 269 279 272 267 264 262 226 212 220 235 241 217 239 257 264 255 234 221 217 207 210 234 190 178 168 180 165 181
257 360 310 351 96 34 321 67 274 4 303 269 252 254 257 272 274 278 269 254 272 297 301 280 271 267 265 261 232 232 240 236 236 248 261 253 258 249 224 208 215 210 214 238 185 171 179 181 178
336 339 42 57 93 360 241 122 272 234 210 259 267 259 261 282 311 303 281 279 283 286 287 279 268 264 266 260 263 253 255 247 249 238 246 256 253 252 244 223 210 214 208 210 224 177 178 178 185
62 43 329 344 1 236 142 10 249 269 236 225 244 266 284 304 297 291 288 290 290 287 280 278 270 272 261 255 254 251 244 244 248 253 250 248 248 245 244 233 222 212 212 219 192 195 177 181 178
126 137 156 252 283 283 15 239 251 235 270 250 256 269 282 284 289 295 287 282 287 288 284 281 276 273 275 271 265 255 247 248 256 256 253 247 243 243 246 243 227 222 202 197 161 204 178 181 179
142 166 128 102 114 11 235 275 278 287 267 255 261 275 282 293 303 296 292 290 289 284 279 278 283 280 280 276 266 256 253 252 255 258 254 247 243 241 241 250 226 217 207 182 183 192 197 179 177
183 147 75 4 332 290 279 276 241 286 258 242 292 298 302 302 295 287 293 297 290 282 284 282 282 283 282 278 273 269 265 259 255 258 249 241 242 235 237 241 240 213 200 187 189 176 206 177 179
145 211 69 111 152 194 301 266 209 230 234 238 266 274 278 293 295 305 309 301 289 291 282 286 281 282 282 278 277 271 267 263 257 253 251 246 243 239 228 237 240 212 192 183 180 185 161 212 173
192 193 163 136 236 236 198 268 215 226 217 192 279 291 297 290 299 309 310 306 303 307 299 294 293 289 288 289 282 278 273 264 257 249 243 240 235 232 220 223 237 223 191 171 179 169 168 167 187